Location: Warszawa
(52.2500°N, 21.0000°E)
Time: 19:13:11
(UTC+02:00)

ITUPSAT 1 - Pass Details

Date: 01 May 2024
Orbit: 694 x 707 km, 98.5° (Epoch: 21 May)

Event Time Altitude Azimuth Distance (km) Brightness Sun altitude
Rises 22:52:10 0° 15° (NNE) 3,088 ? -18.9°
Reaches altitude 10° 22:54:26 10° 16° (NNE) 2,165 ? -19.0°
Maximum altitude 22:59:11 84° 104° (ESE) 706 ? -19.3°
Enters shadow 23:01:09 36° 191° (S) 1,103 ? -19.5°
